H1 CPF 2 NER 2025 10 9 9 282 01 glonass135 H2 1600801 9135 41330 2025 10 9 0 0 0 2025 10 12 23 45 0 900 1 1 0 0 0 1 H9 10 0 60957 0.00000 0 -14570736.975 20873250.059 -1097833.158 10 0 60957 900.00000 0 -14246992.122 20679072.357 -4305192.118 10 0 60957 1800.00000 0 -13756154.949 20116644.504 -7428617.966 10 0 60957 2700.00000 0 -13154723.076 19176250.441 -10407209.113 10 0 60957 3600.00000 0 -12501299.186 17861523.803 -13182896.669 10 0 60957 4500.00000 0 -11853938.223 16189489.349 -15701589.853 10 0 60957 5400.00000 0 -11267533.302 14190050.609 -17914240.658 10 0 60957 6300.00000 0 -10791352.534 11904944.992 -19777805.979 10 0 60957 7200.00000 0 -10466832.172 9386210.411 -21256087.864 10 0 60957 8100.00000 0 -10325720.092 6694228.157 -22320435.459 10 0 60957 9000.00000 0 -10388648.234 3895424.553 -22950295.334 10 0 60957 9900.00000 0 -10664193.924 1059728.040 -23133600.222 10 0 60957 10800.00000 0 -11148468.928 -1742111.837 -22866989.688 10 0 60957 11700.00000 0 -11825252.499 -4441231.768 -22155859.611 10 0 60957 12600.00000 0 -12666661.574 -6973276.017 -21014240.843 10 0 60957 13500.00000 0 -13634328.687 -9280823.586 -19464510.592 10 0 60957 14400.00000 0 -14681036.923 -11315521.639 -17536943.247 10 0 60957 15300.00000 0 -15752742.238 -13039838.232 -15269110.269 10 0 60957 16200.00000 0 -16790897.532 -14428363.577 -12705141.493 10 0 60957 17100.00000 0 -17734980.476 -15468608.040 -9894862.626 10 0 60957 18000.00000 0 -18525118.889 -16161266.060 -6892825.936 10 0 60957 18900.00000 0 -19104703.606 -16519937.386 -3757252.993 10 0 60957 19800.00000 0 -19422879.574 -16570319.465 -548909.770 10 0 60957 20700.00000 0 -19436811.128 -16348906.630 2670064.348 10 0 60957 21600.00000 0 -19113626.931 -15901251.964 5837351.452 10 0 60957 22500.00000 0 -18431963.479 -15279865.660 8891651.403 10 0 60957 23400.00000 0 -17383042.693 -14541838.426 11773857.099 10 0 60957 24300.00000 0 -15971238.434 -13746289.673 14428186.868 10 0 60957 25200.00000 0 -14214107.768 -12951747.182 16803253.073 10 0 60957 26100.00000 0 -12141884.819 -12213567.591 18853047.204 10 0 60957 27000.00000 0 -9796457.001 -11581505.226 20537823.419 10 0 60957 27900.00000 0 -7229864.589 -11097530.593 21824864.252 10 0 60957 28800.00000 0 -4502384.072 -10793989.600 22689114.315 10 0 60957 29700.00000 0 -1680272.811 -10692180.587 23113670.054 10 0 60957 30600.00000 0 1166733.596 -10801409.152 23090116.063 10 0 60957 31500.00000 0 3968069.351 -11118561.217 22618700.975 10 0 60957 32400.00000 0 6655023.828 -11628213.430 21708348.700 10 0 60957 33300.00000 0 9163354.193 -12303277.836 20376503.533 10 0 60957 34200.00000 0 11435717.599 -13106155.473 18648810.670 10 0 60957 35100.00000 0 13423822.218 -13990352.121 16558636.636 10 0 60957 36000.00000 0 15090207.475 -14902489.771 14146437.291 10 0 60957 36900.00000 0 16409578.726 -15784630.195 11458984.189 10 0 60957 37800.00000 0 17369639.926 -16576813.239 8548463.160 10 0 60957 38700.00000 0 17971388.730 -17219702.635 5471461.886 10 0 60957 39600.00000 0 18228860.991 -17657226.852 2287866.017 10 0 60957 40500.00000 0 18168335.173 -17839102.005 -940314.345 10 0 60957 41400.00000 0 17827030.270 -17723128.384 -4150164.085 10 0 60957 42300.00000 0 17251352.796 -17277161.376 -7279103.322 10 0 60957 43200.00000 0 16494767.922 -16480671.343 -10266122.722 10 0 60957 44100.00000 0 15615386.182 -15325824.548 -13052988.124 10 0 60957 45000.00000 0 14673369.493 -13818037.805 -15585389.305 10 0 60957 45900.00000 0 13728267.911 -11975982.281 -17814009.099 10 0 60957 46800.00000 0 12836401.316 -9831035.530 -19695491.006 10 0 60957 47700.00000 0 12048397.992 -7426204.552 -21193285.809 10 0 60957 48600.00000 0 11406994.858 -4814565.200 -22278360.598 10 0 60957 49500.00000 0 10945192.483 -2057283.669 -22929756.765 10 0 60957 50400.00000 0 10684842.395 778696.701 -23134986.821 10 0 60957 51300.00000 0 10635725.438 3623206.341 -22890263.358 10 0 60957 52200.00000 0 10795158.740 6405531.589 -22200556.920 10 0 60957 53100.00000 0 11148146.363 9057116.473 -21079482.919 10 0 60957 54000.00000 0 11668065.668 11514172.288 -19549021.024 10 0 60957 54900.00000 0 12317858.962 13720087.479 -17639073.578 10 0 60957 55800.00000 0 13051678.867 15627538.977 -15386872.518 10 0 60957 56700.00000 0 13816917.118 17200218.999 -12836247.054 10 0 60957 57600.00000 0 14556530.636 18414107.497 -10036766.746 10 0 60957 58500.00000 0 15211566.630 19258239.481 -7042776.940 10 0 60957 59400.00000 0 15723780.414 19734937.478 -3912345.289 10 0 60957 60300.00000 0 16038236.045 19859501.588 -706139.680 10 0 60957 61200.00000 0 16105780.800 19659371.959 2513740.984 10 0 60957 62100.00000 0 15885289.976 19172800.257 5684960.954 10 0 60957 63000.00000 0 15345588.147 18447086.851 8746144.283 10 0 60957 63900.00000 0 14466966.513 17536458.116 11638051.523 10 0 60957 64800.00000 0 13242232.724 16499672.986 14304714.601 10 0 60957 65700.00000 0 11677248.847 15397458.702 16694508.901 10 0 60957 66600.00000 0 9790934.161 14289882.658 18761142.808 10 0 60957 67500.00000 0 7614731.454 13233769.616 20464546.529 10 0 60957 68400.00000 0 5191557.336 12280271.616 21771643.905 10 0 60957 69300.00000 0 2574278.307 11472691.625 22656992.836 10 0 60957 70200.00000 0 -176226.342 10844651.521 23103282.356 10 0 60957 71100.00000 0 -2993336.687 10418680.960 23101676.664 10 0 60957 72000.00000 0 -5807207.295 10205286.500 22651999.036 10 0 60957 72900.00000 0 -8547422.999 10202540.643 21762751.225 10 0 60957 73800.00000 0 -11145686.727 10396209.078 20450966.745 10 0 60957 74700.00000 0 -13538428.879 10760412.104 18741899.399 10 0 60957 75600.00000 0 -15669230.398 11258793.856 16668551.441 10 0 60957 76500.00000 0 -17490958.736 11846151.510 14271048.833 10 0 60957 77400.00000 0 -18967527.213 12470456.914 11595874.264 10 0 60957 78300.00000 0 -20075203.566 13075186.054 8694971.615 10 0 60957 79200.00000 0 -20803411.996 13601858.085 5624738.524 10 0 60957 80100.00000 0 -21154994.214 13992676.073 2444926.457 10 0 60957 81000.00000 0 -21145917.836 14193156.625 -782529.981 10 0 60957 81900.00000 0 -20804444.142 14154635.452 -3994730.861 10 0 60957 82800.00000 0 -20169790.401 13836540.813 -7129050.793 10 0 60957 83700.00000 0 -19290343.929 13208336.416 -10124375.133 10 0 60957 84600.00000 0 -18221504.355 12251049.454 -12922306.713 10 0 60957 85500.00000 0 -17023246.722 10958317.281 -15468317.910 10 0 60958 0.00000 0 -15757510.090 9336907.147 -17712823.998 10 0 60958 900.00000 0 -14485522.797 7406685.053 -19612156.961 10 0 60958 1800.00000 0 -13265180.356 5200036.671 -21129417.215 10 0 60958 2700.00000 0 -12148585.252 2760761.581 -22235190.546 10 0 60958 3600.00000 0 -11179854.455 142489.383 -22908113.544 10 0 60958 4500.00000 0 -10393286.130 -2593316.452 -23135278.494 10 0 60958 5400.00000 0 -9811962.088 -5379683.115 -22912470.659 10 0 60958 6300.00000 0 -9446843.456 -8146684.122 -22244234.540 10 0 60958 7200.00000 0 -9296395.964 -10824119.541 -21143769.080 10 0 60958 8100.00000 0 -9346758.677 -13344209.505 -19632655.096 10 0 60958 9000.00000 0 -9572447.124 -15644189.602 -17740421.309 10 0 60958 9900.00000 0 -9937559.373 -17668701.193 -15503958.379 10 0 60958 10800.00000 0 -10397432.698 -19371878.659 -12966792.990 10 0 60958 11700.00000 0 -10900679.848 -20719048.408 -10178236.590 10 0 60958 12600.00000 0 -11391518.307 -21687970.798 -7192425.598 10 0 60958 13500.00000 0 -11812293.999 -22269575.233 -4067271.756 10 0 60958 14400.00000 0 -12106093.068 -22468159.757 -863342.867 10 0 60958 15300.00000 0 -12219331.922 -22301048.614 2357304.662 10 0 60958 16200.00000 0 -12104216.909 -21797723.626 5532319.295 10 0 60958 17100.00000 0 -11720970.548 -20998466.893 8600251.404 10 0 60958 18000.00000 0 -11039731.072 -19952572.264 11501731.395 10 0 60958 18900.00000 0 -10042045.664 -18716200.740 14180607.031 10 0 60958 19800.00000 0 -8721894.522 -17349969.295 16585018.973 10 0 60958 20700.00000 0 -7086202.263 -15916373.468 18668394.663 10 0 60958 21600.00000 0 -5154814.183 -14477150.690 20390342.386 10 0 60958 22500.00000 0 -2959936.801 -13090693.595 21717429.064 10 0 60958 23400.00000 0 -545064.011 -11809620.499 22623827.376 10 0 60958 24300.00000 0 2036568.688 -10678603.730 23091820.068 10 0 60958 25200.00000 0 4723940.150 -9732546.018 23112151.692 10 0 60958 26100.00000 0 7450530.849 -8995180.997 22684220.524 10 0 60958 27000.00000 0 10146848.767 -8478156.519 21816106.139 10 0 60958 27900.00000 0 12743090.950 -8180639.731 20524430.871 10 0 60958 28800.00000 0 15171831.532 -8089461.370 18834056.394 10 0 60958 29700.00000 0 17370625.340 -8179794.245 16777619.594 10 0 60958 30600.00000 0 19284418.944 -8416338.548 14394915.102 10 0 60958 31500.00000 0 20867668.279 -8754965.012 11732134.948 10 0 60958 32400.00000 0 22086073.670 -9144747.323 8840978.915 10 0 60958 33300.00000 0 22917858.611 -9530298.144 5777652.096 10 0 60958 34200.00000 0 23354537.556 -9854309.653 2601768.961 10 0 60958 35100.00000 0 23401139.467 -10060190.142 -624814.450 10 0 60958 36000.00000 0 23075877.009 -10094683.555 -3839216.606 10 0 60958 36900.00000 0 22409275.027 -9910359.155 -6978769.879 10 0 60958 37800.00000 0 21442795.249 -9467863.667 -9982257.499 10 0 60958 38700.00000 0 20227015.965 -8737838.392 -12791122.314 10 0 60958 39600.00000 0 18819444.599 -7702418.065 -15350622.079 10 0 60958 40500.00000 0 17282056.876 -6356246.360 -17610907.358 10 0 60958 41400.00000 0 15678667.861 -4706963.774 -19527999.958 10 0 60958 42300.00000 0 14072247.068 -2775146.428 -21064652.157 10 0 60958 43200.00000 0 12522291.796 -593697.889 -22191069.849 10 0 60958 44100.00000 0 11082369.783 1793280.574 -22885485.828 10 0 60958 45000.00000 0 9797934.602 4332093.738 -23134572.741 10 0 60958 45900.00000 0 8704504.925 6961462.784 -22933688.670 10 0 60958 46800.00000 0 7826282.957 9614857.972 -22286951.794 10 0 60958 47700.00000 0 7175268.359 12223056.119 -21207143.892 10 0 60958 48600.00000 0 6750902.781 14716816.344 -19715445.832 10 0 60958 49500.00000 0 6540257.700 17029563.009 -17841011.270 10 0 60958 50400.00000 0 6518755.409 19099964.833 -15620387.789 10 0 60958 51300.00000 0 6651390.741 20874303.855 -13096797.448 10 0 60958 52200.00000 0 6894400.367 22308536.933 -10319291.194 10 0 60958 53100.00000 0 7197307.994 23369965.485 -7341793.880 10 0 60958 54000.00000 0 7505258.390 24038445.564 -4222058.485 10 0 60958 54900.00000 0 7761541.422 24307089.564 -1020549.726 10 0 60958 55800.00000 0 7910199.614 24182431.916 2200721.569 10 0 60958 56700.00000 0 7898609.571 23684053.307 5379391.163 10 0 60958 57600.00000 0 7679928.896 22843680.268 8453938.754 10 0 60958 58500.00000 0 7215305.995 21703798.514 11364867.454 10 0 60958 59400.00000 0 6475760.122 20315838.298 14055843.534 10 0 60958 60300.00000 0 5443652.686 18738007.497 16474775.344 10 0 60958 61200.00000 0 4113687.738 17032862.406 18574811.544 10 0 60958 62100.00000 0 2493398.913 15264716.861 20315240.361 10 0 60958 63000.00000 0 603101.093 13496996.757 21662273.344 10 0 60958 63900.00000 0 -1524692.942 11789649.210 22589699.129 10 0 60958 64800.00000 0 -3846368.792 10196713.382 23079394.959 10 0 60958 65700.00000 0 -6308776.437 8764153.389 23121686.063 10 0 60958 66600.00000 0 -8851203.372 7528043.134 22715545.535 10 0 60958 67500.00000 0 -11407675.266 6513178.612 21868630.047 10 0 60958 68400.00000 0 -13909490.731 5732175.794 20597149.477 10 0 60958 69300.00000 0 -16287886.452 5185092.332 18925571.533 10 0 60958 70200.00000 0 -18476722.962 4859589.637 16886165.400 10 0 60958 71100.00000 0 -20415079.666 4731629.377 14518391.605 10 0 60958 72000.00000 0 -22049650.744 4766675.926 11868148.430 10 0 60958 72900.00000 0 -23336841.150 4921354.689 8986888.261 10 0 60958 73800.00000 0 -24244473.897 5145496.595 5930620.267 10 0 60958 74700.00000 0 -24753035.722 5384482.122 2758818.561 10 0 60958 75600.00000 0 -24856407.526 5581784.908 -466742.619 10 0 60958 76500.00000 0 -24562047.691 5681605.961 -3683203.235 10 0 60958 77400.00000 0 -23890619.818 5631485.100 -6827856.305 10 0 60958 78300.00000 0 -22875080.267 5384776.909 -9839385.614 10 0 60958 79200.00000 0 -21559264.180 4902884.124 -12659076.458 10 0 60958 80100.00000 0 -19996030.354 4157151.723 -15231974.129 10 0 60958 81000.00000 0 -18245044.250 3130339.696 -17507966.120 10 0 60958 81900.00000 0 -16370293.831 1817610.659 -19442765.894 10 0 60958 82800.00000 0 -14437444.189 226989.543 -20998778.350 10 0 60958 83700.00000 0 -12511143.307 -1620724.701 -22145829.968 10 0 60958 84600.00000 0 -10652392.938 -3692591.962 -22861749.722 10 0 60958 85500.00000 0 -8916095.215 -5944681.761 -23132790.086 10 0 60959 0.00000 0 -7348877.636 -8323693.262 -22953881.021 10 0 60959 900.00000 0 -5987285.803 -10768977.706 -22328712.952 10 0 60959 1800.00000 0 -4856420.135 -13214875.220 -21269648.752 10 0 60959 2700.00000 0 -3969068.844 -15593272.572 -19797467.331 10 0 60959 3600.00000 0 -3325373.270 -17836272.133 -17940945.069 10 0 60959 4500.00000 0 -2913036.265 -19878862.403 -15736284.151 10 0 60959 5400.00000 0 -2708062.538 -21661479.281 -13226399.645 10 0 60959 6300.00000 0 -2675997.614 -23132352.325 -10460079.663 10 0 60959 7200.00000 0 -2773611.444 -24249539.356 -7491035.246 10 0 60959 8100.00000 0 -2950954.328 -24982565.966 -4376858.489 10 0 60959 9000.00000 0 -3153697.617 -25313602.997 -1177909.036 10 0 60959 9900.00000 0 -3325660.091 -25238134.241 2043849.734 10 0 60959 10800.00000 0 -3411413.410 -24765087.800 5226042.659 10 0 60959 11700.00000 0 -3358857.104 -23916426.658 8307080.480 10 0 60959 12600.00000 0 -3121654.955 -22726216.277 11227340.723 10 0 60959 13500.00000 0 -2661430.625 -21239208.486 13930309.842 10 0 60959 14400.00000 0 -1949630.398 -19509000.654 16363665.534 10 0 60959 15300.00000 0 -968974.729 -17595846.478 18480279.273 10 0 60959 16200.00000 0 285562.786 -15564208.795 20239120.701 10 0 60959 17100.00000 0 1806291.003 -13480155.278 21606047.307 10 0 60959 18000.00000 0 3572872.296 -11408704.248 22554464.778 10 0 60959 18900.00000 0 5552928.102 -9411229.851 23065845.677 10 0 60959 19800.00000 0 7703155.994 -7543033.434 23130096.444 10 0 60959 20700.00000 0 9970914.270 -5851181.409 22745765.221 10 0 60959 21600.00000 0 12296210.603 -4372699.038 21920085.693 10 0 60959 22500.00000 0 14614014.340 -3133195.275 20668854.895 10 0 60959 23400.00000 0 16856798.124 -2145976.191 19016145.878 10 0 60959 24300.00000 0 18957204.390 -1411684.492 16993859.140 10 0 60959 25200.00000 0 20850726.361 -918480.829 14641119.822 10 0 60959 26100.00000 0 22478291.684 -642759.939 12003530.861 10 0 60959 27000.00000 0 23788640.182 -550372.048 9132295.331 10 0 60959 27900.00000 0 24740395.099 -598298.289 6083224.243 10 0 60959 28800.00000 0 25303739.540 -736709.323 2915648.828 10 0 60959 29700.00000 0 25461626.146 -911319.458 -308741.273 10 0 60959 30600.00000 0 25210467.644 -1065935.538 -3527110.473 10 0 60959 31500.00000 0 24560277.954 -1145091.040 -6676715.487 10 0 60959 32400.00000 0 23534257.145 -1096651.821 -9696143.677 10 0 60959 33300.00000 0 22167837.408 -874280.948 -12526525.682 10 0 60959 34200.00000 0 20507230.526 -439656.074 -15112697.009 10 0 60959 35100.00000 0 18607538.674 235656.518 -17404284.499 10 0 60959 36000.00000 0 16530509.141 1168752.147 -19356695.396 10 0 60959 36900.00000 0 14342028.539 2364424.741 -20931989.033 10 0 60959 37800.00000 0 12109462.915 3814732.070 -22099613.985 10 0 60959 38700.00000 0 9898956.211 5499107.921 -22836996.575 10 0 60959 39600.00000 0 7772800.780 7385016.504 -23129969.939 10 0 60959 40500.00000 0 5786989.960 9429121.369 -22973036.278 10 0 60959 41400.00000 0 3989054.355 11578919.476 -22369458.368 10 0 60959 42300.00000 0 2416271.050 13774771.542 -21331179.792 10 0 60959 43200.00000 0 1094318.727 15952243.459 -19878576.678 10 0 60959 44100.00000 0 36432.639 18044660.823 -18040046.884 10 0 60959 45000.00000 0 -756907.741 19985769.946 -15851445.548 10 0 60959 45900.00000 0 -1297748.015 21712394.672 -13355378.732 10 0 60959 46800.00000 0 -1609897.321 23166978.736 -10600369.377 10 0 60959 47700.00000 0 -1727670.224 24299908.403 -7639912.094 10 0 60959 48600.00000 0 -1694186.873 25071519.511 -4531435.260 10 0 60959 49500.00000 0 -1559304.322 25453706.270 -1335190.452 10 0 60959 50400.00000 0 -1377267.074 25431065.808 1886909.470 10 0 60959 51300.00000 0 -1204176.261 25001531.768 5072481.515 10 0 60959 52200.00000 0 -1095384.105 24176471.394 8159870.502 10 0 60959 53100.00000 0 -1102923.204 22980242.675 11089331.279 10 0 60959 54000.00000 0 -1273078.463 21449230.302 13804173.235 10 0 60959 54900.00000 0 -1644203.482 19630400.529 16251845.960 10 0 60959 55800.00000 0 -2244872.971 17579434.655 18384946.053 10 0 60959 56700.00000 0 -3092448.926 15358517.981 20162126.635 10 0 60959 57600.00000 0 -4192121.235 13033875.076 21548892.913 10 0 60959 58500.00000 0 -5536463.989 10673152.502 22518269.079 10 0 60959 59400.00000 0 -7105527.615 8342756.367 23051324.101 10 0 60959 60300.00000 0 -8867465.022 6105253.973 23137546.279 10 0 60959 61200.00000 0 -10779667.938 4016946.409 22775058.959 10 0 60959 62100.00000 0 -12790368.538 2125712.134 21970672.452 10 0 60959 63000.00000 0 -14840641.989 469210.747 20739769.970 10 0 60959 63900.00000 0 -16866728.556 -926478.326 19106028.339 10 0 60959 64800.00000 0 -18802580.056 -2047725.281 17100977.221 10 0 60959 65700.00000 0 -20582525.465 -2893690.747 14763403.706 10 0 60959 66600.00000 0 -22143944.596 -3476123.138 12138612.282 10 0 60959 67500.00000 0 -23429837.702 -3818620.559 9277553.298 10 0 60959 68400.00000 0 -24391182.363 -3955388.038 6235835.991 10 0 60959 69300.00000 0 -24988977.332 -3929542.460 3072645.014 10 0 60959 70200.00000 0 -25195885.759 -3791037.273 -150418.249 10 0 60959 71100.00000 0 -24997406.892 -3594295.659 -3370546.216 10 0 60959 72000.00000 0 -24392525.300 -3395653.743 -6524962.676 10 0 60959 72900.00000 0 -23393808.973 -3250723.971 -9552161.721 10 0 60959 73800.00000 0 -22026951.371 -3211792.368 -12393122.232 10 0 60959 74700.00000 0 -20329776.421 -3325362.081 -14992472.517 10 0 60959 75600.00000 0 -18350748.602 -3629949.220 -17299580.965 10 0 60959 76500.00000 0 -16147051.446 -4154226.027 -19269550.345 10 0 60959 77400.00000 0 -13782316.147 -4915591.197 -20864095.644 10 0 60959 78300.00000 0 -11324096.617 -5919228.642 -22052288.141 10 0 60959 79200.00000 0 -8841197.708 -7157694.827 -22811151.491 10 0 60959 80100.00000 0 -6400969.055 -8611052.086 -23126098.843 10 0 60959 81000.00000 0 -4066677.832 -10247542.029 -22991203.445 10 0 60959 81900.00000 0 -1895069.747 -12024770.285 -22409298.645 10 0 60959 82800.00000 0 65780.893 -13891352.310 -21391906.564 10 0 60959 83700.00000 0 1778243.882 -15788950.761 -19958998.059 10 0 60959 84600.00000 0 3216456.695 -17654618.766 -18138589.748 10 0 60959 85500.00000 0 4367146.094 -19423350.829 -15966186.873 10 0 60960 0.00000 0 5229916.039 -21030734.627 -13484083.832 10 0 60960 900.00000 0 5816992.984 -22415593.972 -10740535.068 10 0 60960 1800.00000 0 6152440.711 -23522510.883 -7788816.195 10 0 60960 2700.00000 0 6270881.440 -24304124.956 -4686189.229 10 0 60960 3600.00000 0 6215777.589 -24723112.633 -1492795.218 10 0 60960 4500.00000 0 6037348.275 -24753765.420 1729505.766 10 0 60960 5400.00000 0 5790209.004 -24383101.846 4918324.959 10 0 60960 6300.00000 0 5530834.252 -23611467.454 8011943.121 10 0 60960 7200.00000 0 5314949.725 -22452598.245 10950494.093 10 0 60960 8100.00000 0 5194963.771 -20933145.148 13677111.688 10 0 60960 9000.00000 0 5217545.556 -19091679.121 16139018.693 10 0 60960 9900.00000 0 5421451.418 -16977217.825 18288537.955 10 0 60960 10800.00000 0 5835690.518 -14647334.215 20084006.993 10 0 60960 11700.00000 0 6478106.893 -12165924.449 21490579.431 10 0 60960 12600.00000 0 7354437.941 -9600726.369 22480898.427 10 0 60960 13500.00000 0 8457889.853 -7020690.022 23035629.566 10 0 60960 14400.00000 0 9769249.337 -4493307.717 23143842.973 10 0 60960 15300.00000 0 11257528.947 -2082013.071 22803236.907 10 0 60960 16200.00000 0 12881121.316 156244.149 22020197.772 10 0 60960 17100.00000 0 14589416.416 2173147.451 20809694.208 10 0 60960 18000.00000 0 16324816.489 3930798.269 19195005.841 10 0 60960 18900.00000 0 18025066.313 5403061.573 17207290.315 10 0 60960 19800.00000 0 19625802.698 6576416.001 14884995.279 10 0 60960 20700.00000 0 21063217.165 7450272.483 12273125.170 10 0 60960 21600.00000 0 22276720.212 8036747.531 9422375.779 10 0 60960 22500.00000 0 23211494.673 8359900.298 6388152.518 10 0 60960 23400.00000 0 23820829.600 8454465.415 3229491.191 10 0 60960 24300.00000 0 24068134.775 8364135.296 7902.476 10 0 60960 25200.00000 0 23928549.162 8139465.195 -3213836.635 10 0 60960 26100.00000 0 23390073.570 7835490.797 -6372919.647 10 0 60960 27000.00000 0 22454178.144 7509160.788 -9407750.004 10 0 60960 27900.00000 0 21135857.753 7216695.044 -12259157.335 10 0 60960 28800.00000 0 19463132.161 7010982.335 -14871565.084 10 0 60960 29700.00000 0 17476011.739 6939129.741 -17194085.315 10 0 60960 30600.00000 0 15224972.438 7040269.257 -19181518.216 10 0 60960 31500.00000 0 12769004.675 7343715.732 -20795236.080 10 0 60960 32400.00000 0 10173318.777 7867554.936 -22003934.325 10 0 60960 33300.00000 0 7506803.922 8617721.791 -22784235.139 10 0 60960 34200.00000 0 4839347.535 9587607.652 -23121132.620 10 0 60960 35100.00000 0 2239127.450 10758212.774 -23008271.703 10 0 60960 36000.00000 0 -230010.324 12098836.948 -22448056.587 10 0 60960 36900.00000 0 -2510979.526 13568278.486 -21451587.803 10 0 60960 37800.00000 0 -4555587.319 15116490.457 -20038430.374 10 0 60960 38700.00000 0 -6326286.578 16686624.017 -18236218.661 10 0 60960 39600.00000 0 -7797475.904 18217372.667 -16080106.571 10 0 60960 40500.00000 0 -8956295.645 19645518.951 -13612074.530 10 0 60960 41400.00000 0 -9802889.388 20908576.929 -10880107.225 10 0 60960 42300.00000 0 -10350122.595 21947419.989 -7937258.424 10 0 60960 43200.00000 0 -10622772.670 22708784.430 -4840621.164 10 0 60960 44100.00000 0 -10656226.557 23147544.654 -1650223.203 10 0 60960 45000.00000 0 -10494742.234 23228665.392 1572131.004 10 0 60960 45900.00000 0 -10189348.369 22928750.009 4764049.782 10 0 60960 46800.00000 0 -9795471.138 22237120.707 7863752.672 10 0 60960 47700.00000 0 -9370388.224 21156385.865 10811255.299 10 0 60960 48600.00000 0 -8970616.951 19702470.941 13549518.594 10 0 60960 49500.00000 0 -8649345.925 17904111.394 16025541.126 10 0 60960 50400.00000 0 -8454017.632 15801828.136 18191374.418 10 0 60960 51300.00000 0 -8424163.047 13446427.154 20005042.637 10 0 60960 52200.00000 0 -8589578.865 10897084.304 21431349.852 10 0 60960 53100.00000 0 -8968923.926 8219093.246 22442559.954 10 0 60960 54000.00000 0 -9568794.171 5481368.178 23018936.588 10 0 60960 54900.00000 0 -10383315.915 2753803.145 23149132.756 10 0 60960 55800.00000 0 -11394275.953 104595.772 22830422.237 10 0 60960 56700.00000 0 -12571784.928 -2402355.007 22068767.622 10 0 60960 57600.00000 0 -13875448.315 -4709870.346 20878722.500 10 0 60960 58500.00000 0 -15255998.093 -6769632.027 19283168.235 10 0 60960 59400.00000 0 -16657318.768 -8543953.378 17312888.808 10 0 60960 60300.00000 0 -18018784.372 -10007106.635 15005990.212 10 0 60960 61200.00000 0 -19277809.414 -11146150.885 12407174.137 10 0 60960 62100.00000 0 -20372507.002 -11961225.433 9566878.713 10 0 60960 63000.00000 0 -21244342.021 -12465295.756 6540302.124 10 0 60960 63900.00000 0 -21840666.678 -12683362.394 3386327.730 10 0 60960 64800.00000 0 -22117030.035 -12651166.120 166371.808 10 0 60960 65700.00000 0 -22039162.245 -12413444.445 -3056822.937 10 0 60960 66600.00000 0 -21584547.727 -12021814.037 -6220423.359 10 0 60960 67500.00000 0 -20743518.942 -11532369.956 -9262745.767 10 0 60960 68400.00000 0 -19519822.911 -11003105.028 -12124473.865 10 0 60960 69300.00000 0 -17930635.348 -10491260.486 -14749829.314 10 0 60960 70200.00000 0 -16006021.013 -10050721.951 -17087670.590 10 0 60960 71100.00000 0 -13787862.748 -9729572.705 -19092497.615 10 0 60960 72000.00000 0 -11328304.382 -9567909.150 -20725341.777 10 0 60960 72900.00000 0 -8687773.329 -9596011.751 -21954523.809 10 0 60960 73800.00000 0 -5932666.335 -9832949.144 -22756264.940 10 0 60960 74700.00000 0 -3132795.795 -10285674.276 -23115140.042 10 0 60960 75600.00000 0 -358703.708 -10948650.172 -23024364.904 10 0 60960 76500.00000 0 2321044.694 -11804020.280 -22485913.152 10 0 60960 77400.00000 0 4842475.171 -12822315.221 -21510461.803 10 0 60960 78300.00000 0 7148618.633 -13963665.142 -20117167.702 10 0 60960 79200.00000 0 9191626.104 -15179465.720 -18333280.304 10 0 60960 80100.00000 0 10934498.256 -16414427.010 -16193599.277 10 0 60960 81000.00000 0 12352359.691 -17608918.493 -13739788.243 10 0 60960 81900.00000 0 13433227.317 -18701511.587 -11019558.495 10 0 60960 82800.00000 0 14178243.296 -19631612.865 -8085738.925 10 0 60960 83700.00000 0 14601365.329 -20342077.704 -4995250.351 10 0 60960 84600.00000 0 14728529.561 -20781695.140 -1808004.087 10 0 60960 85500.00000 0 14596323.073 -20907440.263 1414254.045 99